Weather History for Paynesville, MN

Change the Weather History Date:

Saturday, May 3, 2014

  Actual Average (KLJF) Record (KLJF)
Temperature  
Mean Temperature 45 °F -  
Max Temperature 55 °F 66 °F 94 °F (1949)
Min Temperature 35 °F 39 °F 19 °F (1967)
Degree Days  
Heating Degree Days 20    
Moisture  
Dew Point 33 °F    
Average Humidity 62    
Maximum Humidity 89    
Minimum Humidity 36    
Precipitation  
Precipitation 0.00 in - - ()
Sea Level Pressure  
Sea Level Pressure 29.86 in    
Wind  
Wind Speed 6 mph (WNW)    
Max Wind Speed 22 mph    
Max Gust Speed 30 mph    
Visibility 10 miles    
Events      
Averages and records for this station are not official NWS values.
T = Trace of Precipitation, MM = Missing Value Source: NWS Daily Summary

Daily Weather History Graph

Daily Weather History Graph

Search for Another Location

Airport:

Trip Planner

Search our weather history database for the weather conditions in past years. The results will help you decide how hot, cold, wet, or windy it might be!

Date:

Astronomy

May. 03, 2014 Rise Set
Actual Time 6:04 AM CDT 8:28 PM CDT
Civil Twilight 5:31 AM CDT 9:01 PM CDT
Nautical Twilight 4:50 AM CDT 9:42 PM CDT
Astronomical Twilight 4:04 AM CDT 10:28 PM CDT
Moon 9:32 AM CDT (5/3) No Moon Set
Length of Visible Light 15h 29m
Length of Day
14h 23m
Waxing Crescent, 20% of the Moon is Illuminated
May 3
Waxing Crescent
May 6
First Quarter
May 14
Full
May 21
Last Quarter
May 28
New

Hourly Weather History & Observations

Time (CDT) Temp. Windchill Dew Point Humidity Pressure Visibility Wind Dir Wind Speed Gust Speed Precip Events Conditions
12:12 AM 44.2 °F - 34.5 °F 69% 29.75 in 10.0 mi Calm Calm - N/A   Clear
12:31 AM 44.2 °F - 33.8 °F 67% 29.75 in 10.0 mi Calm Calm - N/A   Clear
12:52 AM 40.3 °F - 33.8 °F 78% 29.75 in 10.0 mi Calm Calm - N/A   Clear
1:12 AM 39.6 °F - 33.8 °F 80% 29.75 in 10.0 mi Calm Calm - N/A   Clear
1:32 AM 39.2 °F - 32.9 °F 78% 29.76 in 10.0 mi Calm Calm - N/A   Clear
1:52 AM 38.7 °F - 32.4 °F 78% 29.76 in 10.0 mi Calm Calm - N/A   Clear
2:11 AM 37.9 °F - 32.0 °F 79% 29.77 in 10.0 mi Calm Calm - N/A   Clear
2:32 AM 38.7 °F - 32.9 °F 80% 29.77 in 10.0 mi Calm Calm - N/A   Clear
2:52 AM 40.8 °F 36.9 °F 33.3 °F 74% 29.77 in 10.0 mi WNW 5.8 mph - N/A   Scattered Clouds
3:12 AM 40.1 °F - 33.1 °F 76% 29.77 in 10.0 mi Calm Calm - N/A   Scattered Clouds
3:32 AM 38.3 °F - 32.5 °F 80% 29.78 in 10.0 mi Calm Calm - N/A   Scattered Clouds
3:51 AM 37.0 °F - 32.4 °F 83% 29.79 in 10.0 mi Calm Calm - N/A   Scattered Clouds
4:12 AM 38.1 °F - 32.5 °F 80% 29.79 in 10.0 mi Calm Calm - N/A   Overcast
4:32 AM 38.7 °F - 33.6 °F 82% 29.79 in 10.0 mi Calm Calm - N/A   Overcast
5:12 AM 37.4 °F - 33.1 °F 84% 29.79 in 10.0 mi Calm Calm - N/A   Mostly Cloudy
5:32 AM 36.7 °F - 32.4 °F 84% 29.79 in 10.0 mi Calm Calm - N/A   Scattered Clouds
5:52 AM 35.6 °F - 32.2 °F 87% 29.79 in 10.0 mi Calm Calm - N/A   Mostly Cloudy
6:12 AM 35.8 °F - 32.9 °F 89% 29.80 in 10.0 mi Calm Calm - N/A   Overcast
6:32 AM 36.1 °F - 33.3 °F 89% 29.81 in 10.0 mi Calm Calm - N/A   Scattered Clouds
6:52 AM 36.5 °F - 33.3 °F 88% 29.81 in 10.0 mi Calm Calm - N/A   Clear
7:12 AM 37.4 °F - 34.3 °F 89% 29.82 in 10.0 mi Calm Calm - N/A   Clear
7:32 AM 39.9 °F - 36.7 °F 88% 29.82 in 10.0 mi Calm Calm - N/A   Scattered Clouds
7:52 AM 41.9 °F 38.2 °F 36.5 °F 81% 29.82 in 10.0 mi West 5.8 mph - N/A   Scattered Clouds
8:12 AM 45.0 °F 40.6 °F 37.6 °F 75% 29.83 in 10.0 mi WNW 8.1 mph - N/A   Scattered Clouds
8:32 AM 47.3 °F - 37.9 °F 70% 29.83 in 10.0 mi West 11.5 mph - N/A   Clear
8:52 AM 47.8 °F - 37.9 °F 69% 29.83 in 10.0 mi WNW 10.4 mph - N/A   Clear
9:12 AM 49.3 °F - 38.5 °F 66% 29.83 in 10.0 mi WNW 12.7 mph 17.3 mph N/A   Clear
9:32 AM 50.0 °F - 38.7 °F 65% 29.83 in 10.0 mi WNW 13.8 mph 19.6 mph N/A   Clear
9:52 AM 50.0 °F - 39.0 °F 66% 29.84 in 10.0 mi West 15.0 mph 20.7 mph N/A   Clear
10:12 AM 50.9 °F - 38.1 °F 62% 29.83 in 10.0 mi West 15.0 mph 23.0 mph N/A   Clear
10:32 AM 51.6 °F - 35.8 °F 55% 29.84 in 10.0 mi NW 13.8 mph 21.9 mph N/A   Clear
10:52 AM 52.0 °F - 34.3 °F 51% 29.84 in 10.0 mi NW 19.6 mph 26.5 mph N/A   Scattered Clouds
11:12 AM 52.3 °F - 34.5 °F 51% 29.85 in 10.0 mi NW 18.4 mph 27.6 mph N/A   Scattered Clouds
11:32 AM 51.4 °F - 34.9 °F 53% 29.85 in 10.0 mi NW 17.3 mph 24.2 mph N/A   Scattered Clouds
11:52 AM 51.8 °F - 35.1 °F 53% 29.86 in 10.0 mi WNW 13.8 mph 25.3 mph N/A   Scattered Clouds
12:12 PM 52.2 °F - 31.8 °F 46% 29.86 in 10.0 mi WNW 19.6 mph 25.3 mph N/A   Mostly Cloudy
12:32 PM 53.1 °F - 32.7 °F 46% 29.86 in 10.0 mi NW 19.6 mph 26.5 mph N/A   Scattered Clouds
12:52 PM 54.0 °F - 32.2 °F 44% 29.86 in 10.0 mi NW 16.1 mph 25.3 mph N/A   Scattered Clouds
1:12 PM 54.1 °F - 30.9 °F 41% 29.86 in 10.0 mi WNW 19.6 mph 28.8 mph N/A   Scattered Clouds
1:32 PM 54.0 °F - 30.9 °F 41% 29.86 in 10.0 mi NW 16.1 mph 26.5 mph N/A   Scattered Clouds
1:52 PM 54.3 °F - 29.8 °F 39% 29.86 in 10.0 mi NW 21.9 mph 29.9 mph N/A   Mostly Cloudy
2:11 PM 55.4 °F - 31.6 °F 40% 29.87 in 10.0 mi WNW 17.3 mph 23.0 mph N/A   Mostly Cloudy
2:31 PM 54.7 °F - 28.4 °F 36% 29.87 in 10.0 mi NW 16.1 mph 25.3 mph N/A   Mostly Cloudy
3:12 PM 54.9 °F - 29.3 °F 38% 29.87 in 10.0 mi NW 19.6 mph 27.6 mph N/A   Overcast
3:32 PM 54.7 °F - 30.7 °F 40% 29.87 in 10.0 mi NW 17.3 mph 23.0 mph N/A   Overcast
3:52 PM 54.5 °F - 30.6 °F 40% 29.88 in 10.0 mi WNW 19.6 mph 29.9 mph N/A   Mostly Cloudy
4:12 PM 53.2 °F - 30.9 °F 43% 29.88 in 10.0 mi WNW 19.6 mph 27.6 mph N/A   Mostly Cloudy
4:32 PM 53.6 °F - 30.2 °F 41% 29.88 in 10.0 mi WNW 20.7 mph 25.3 mph N/A   Overcast
4:52 PM 52.5 °F - 31.6 °F 45% 29.89 in 10.0 mi WNW 15.0 mph 21.9 mph N/A   Overcast
5:12 PM 51.3 °F - 32.2 °F 48% 29.89 in 10.0 mi WNW 17.3 mph 21.9 mph N/A   Overcast
5:32 PM 50.9 °F - 32.5 °F 49% 29.90 in 10.0 mi WNW 15.0 mph 23.0 mph N/A   Overcast
5:52 PM 50.9 °F - 33.6 °F 52% 29.91 in 10.0 mi WNW 13.8 mph 18.4 mph N/A   Overcast
6:12 PM 51.3 °F - 33.8 °F 51% 29.91 in 10.0 mi WNW 13.8 mph 21.9 mph N/A   Overcast
6:32 PM 51.4 °F - 33.6 °F 51% 29.91 in 10.0 mi WNW 15.0 mph 20.7 mph N/A   Overcast
6:52 PM 51.1 °F - 31.8 °F 48% 29.91 in 10.0 mi WNW 15.0 mph 19.6 mph N/A   Overcast
7:12 PM 50.7 °F - 32.4 °F 49% 29.91 in 10.0 mi WNW 10.4 mph 18.4 mph N/A   Overcast
7:32 PM 50.7 °F - 31.5 °F 48% 29.91 in 10.0 mi WNW 15.0 mph 20.7 mph N/A   Scattered Clouds
7:52 PM 49.1 °F - 32.0 °F 52% 29.91 in 10.0 mi WNW 10.4 mph - N/A   Scattered Clouds
8:12 PM 48.2 °F - 32.0 °F 54% 29.92 in 10.0 mi WNW 11.5 mph 17.3 mph N/A   Scattered Clouds
8:52 PM 45.9 °F - 31.6 °F 58% 29.93 in 10.0 mi Calm Calm - N/A   Clear
9:12 PM 45.5 °F 41.3 °F 31.1 °F 57% 29.94 in 10.0 mi WNW 8.1 mph - N/A   Clear
9:32 PM 44.6 °F 40.2 °F 31.1 °F 59% 29.95 in 10.0 mi WNW 8.1 mph - N/A   Clear
9:52 PM 43.9 °F 38.8 °F 30.9 °F 60% 29.96 in 10.0 mi WNW 9.2 mph - N/A   Clear
10:12 PM 43.2 °F 38.4 °F 31.1 °F 62% 29.97 in 10.0 mi NW 8.1 mph - N/A   Clear
10:32 PM 42.8 °F 36.6 °F 31.6 °F 65% 29.99 in 10.0 mi NW 11.5 mph 16.1 mph N/A   Clear
10:52 PM 41.5 °F 35.4 °F 31.3 °F 67% 29.99 in 10.0 mi NNW 10.4 mph 16.1 mph N/A   Clear
11:11 PM 40.6 °F 34.8 °F 30.9 °F 68% 30.00 in 10.0 mi NW 9.2 mph - N/A   Clear
11:32 PM 40.1 °F 34.1 °F 29.5 °F 66% 30.01 in 10.0 mi NW 9.2 mph - N/A   Clear
11:52 PM 39.2 °F 33.6 °F 29.1 °F 67% 30.01 in 10.0 mi NW 8.1 mph - N/A   Clear